M0PSX-13 Weather Reports


Display with metric or nautical units.
time (UTC)temp
F
wind
direction
speed
MPH
gust
MPH
rain 1hr
in
rain 24hr
in
rain mn
in
humidity
%
barometer
mb
20260506104004 56 353 0.0 2.0 0.00 0.00 0.00 65 1011.5
20260506102004 54 347 0.0 2.0 0.00 0.00 0.00 68 1011.5
20260506101005 54 343 0.0 6.0 0.00 0.00 0.00 69 1011.7
20260506095004 53 351 1.0 4.0 0.00 0.00 0.00 71 1011.7
20260506094004 53 344 1.0 4.0 0.00 0.00 0.00 70 1011.4
20260506093004 54 354 0.0 4.0 0.00 0.00 0.00 70 1011.6
20260506092004 52 344 1.0 4.0 0.00 0.00 0.00 72 1011.6
20260506091004 53 353 0.0 2.0 0.00 0.00 0.00 72 1011.5
20260506090004 53 356 0.0 2.0 0.00 0.00 0.00 72 1011.5
20260506084004 50 356 0.0 4.0 0.00 0.00 0.00 76 1011.4
20260506073004 49 2 1.0 2.0 0.00 0.00 0.00 81 1011.3
20260506072004 49 2 0.0 2.0 0.00 0.00 0.00 81 1011.4
20260506071005 49 3 0.0 2.0 0.00 0.00 0.00 81 1011.4
20260506062005 46 1 1.0 2.0 0.00 0.00 0.00 84 1011.1
20260506061005 46 1 0.0 2.0 0.00 0.00 0.00 84 1011.1
20260506051004 45 1 0.0 2.0 0.00 0.00 0.00 85 1011.0
20260506045004 45 13 0.0 2.0 0.00 0.00 0.00 85 1011.1
20260506044004 45 14 0.0 2.0 0.00 0.00 0.00 85 1011.1
20260506043004 46 23 0.0 2.0 0.00 0.00 0.00 84 1011.2
20260506042004 46 1 0.0 2.0 0.00 0.00 0.00 84 1011.1
20260506041004 46 0 0.0 0.0 0.00 0.00 0.00 84 1010.9
20260506040004 46 0 0.0 0.0 0.00 0.00 0.00 83 1011.1
20260506035004 47 23 0.0 2.0 0.00 0.00 0.00 83 1011.2
20260506033005 47 14 0.0 2.0 0.00 0.00 0.00 84 1011.2
20260506032004 48 22 0.0 2.0 0.00 0.00 0.00 84 1011.2
20260506031004 48 23 0.0 2.0 0.00 0.00 0.00 85 1011.2
20260506030008 48 22 0.0 2.0 0.00 0.00 0.00 85 1011.3
20260506025005 48 22 0.0 2.0 0.00 0.00 0.00 85 1011.3
20260506023005 48 22 0.0 2.0 0.00 0.00 0.00 84 1011.6
20260506022004 48 8 0.0 2.0 0.00 0.00 0.00 84 1011.5
20260506021004 49 0 0.0 0.0 0.00 0.00 0.00 84 1011.6
20260506015004 49 1 0.0 2.0 0.00 0.00 0.00 84 1011.8
20260506014004 49 1 0.0 2.0 0.00 0.00 0.00 84 1011.7
20260506013004 49 1 0.0 2.0 0.00 0.00 0.00 84 1011.7
20260506012004 49 1 0.0 2.0 0.00 0.00 0.00 84 1011.8
20260506011004 49 1 0.0 2.0 0.00 0.00 0.00 83 1011.6
20260506004004 49 349 0.0 4.0 0.00 0.00 0.00 83 1011.7
20260506003005 49 359 1.0 4.0 0.00 0.00 0.00 83 1011.9
20260506002005 50 356 1.0 4.0 0.00 0.00 0.00 82 1012.0
20260506000004 50 358 0.0 2.0 0.00 0.00 0.00 81 1011.8
20260505235004 50 355 1.0 4.0 0.00 0.00 0.00 81 1011.7
20260505233004 51 354 0.0 2.0 0.00 0.00 0.00 80 1011.8
20260505232004 51 349 0.0 4.0 0.00 0.00 0.00 80 1011.9
20260505231004 51 341 2.0 4.0 0.00 0.00 0.00 79 1011.9
20260505230010 51 343 2.0 6.0 0.00 0.00 0.00 79 1012.0
20260505225005 51 345 1.0 4.0 0.00 0.00 0.00 79 1011.8
20260505224004 51 353 2.0 4.0 0.00 0.00 0.00 79 1011.9
20260505223005 52 2 0.0 2.0 0.00 0.00 0.00 80 1012.0
20260505222004 52 354 0.0 4.0 0.00 0.00 0.00 80 1011.9
20260505221004 52 1 1.0 2.0 0.00 0.00 0.00 80 1011.8
20260505220004 52 357 1.0 4.0 0.00 0.00 0.00 80 1011.7
20260505215004 52 352 2.0 4.0 0.00 0.00 0.00 80 1012.0
20260505214005 52 358 1.0 2.0 0.00 0.00 0.00 79 1011.7
20260505211004 52 354 0.0 2.0 0.00 0.00 0.00 78 1011.8
20260505210004 52 349 2.0 2.0 0.00 0.00 0.00 79 1011.6
20260505205004 52 348 1.0 2.0 0.00 0.00 0.00 80 1011.8
20260505204004 52 348 1.0 4.0 0.00 0.00 0.00 80 1011.8
20260505203004 52 352 0.0 2.0 0.00 0.00 0.00 80 1011.7
20260505202004 52 348 1.0 4.0 0.00 0.00 0.00 80 1011.8
20260505200004 52 339 2.0 4.0 0.00 0.00 0.00 80 1011.4
20260505195004 52 341 2.0 4.0 0.00 0.00 0.00 80 1011.2
20260505191005 53 341 2.0 4.0 0.00 0.00 0.00 79 1011.2
20260505190005 53 345 1.0 4.0 0.00 0.00 0.00 78 1011.0
20260505185005 53 347 2.0 4.0 0.00 0.00 0.00 76 1010.9
20260505184005 54 348 1.0 4.0 0.00 0.00 0.00 73 1010.9
20260505183004 54 340 2.0 6.0 0.00 0.00 0.00 70 1010.7
20260505182004 54 341 1.0 4.0 0.00 0.00 0.00 69 1010.8
20260505181005 54 341 2.0 4.0 0.00 0.00 0.00 68 1010.9
20260505175004 55 345 2.0 4.0 0.00 0.00 0.00 68 1010.8
20260505174005 55 355 1.0 2.0 0.00 0.00 0.00 69 1010.7
20260505171005 56 355 1.0 2.0 0.00 0.00 0.00 70 1010.8
20260505170005 56 357 1.0 4.0 0.00 0.00 0.00 70 1010.5
20260505165005 56 349 2.0 4.0 0.00 0.00 0.00 70 1010.9
20260505164005 56 354 2.0 4.0 0.00 0.00 0.00 71 1010.7
20260505153004 56 339 1.0 6.0 0.00 0.00 0.00 72 1011.1
20260505152004 55 346 2.0 4.0 0.00 0.00 0.00 72 1011.1
20260505151005 55 345 2.0 6.0 0.00 0.00 0.00 74 1011.1
20260505125005 58 355 2.0 4.0 0.00 0.00 0.00 55 1011.3
20260505124005 58 346 2.0 4.0 0.00 0.00 0.00 58 1011.5
20260505123005 58 344 2.0 7.0 0.00 0.00 0.00 60 1011.6
20260505122006 58 348 3.0 6.0 0.00 0.00 0.00 59 1011.5
20260505121004 58 344 4.0 6.0 0.00 0.00 0.00 55 1011.5
20260505120005 58 346 2.0 6.0 0.00 0.00 0.00 60 1011.2
20260505115005 59 353 2.0 6.0 0.00 0.00 0.00 60 1011.5
20260505114004 58 359 3.0 4.0 0.00 0.00 0.00 60 1011.4
20260505113006 58 354 2.0 4.0 0.00 0.00 0.00 59 1011.5
20260505111004 58 354 2.0 7.0 0.00 0.00 0.00 60 1011.5